STARLINK-36296, 68380

Orbit data source: Space-Track

STARLINK-36296, 68380 is a payload satellite owned by SpaceX/Seattle (US) in SSO that was launched on Thu, 26 Mar 2026 UTC via an FALCON 9 launch vehicle from the Air Force Western Test Range (AFWTR). Payload-class satellites include a variety of spacecraft equipped with specific instruments for various scientific and technological missions. These include communications satellites like Starlink; space stations such as the ISS; scientific satellites like the Hubble; Earth observation satellites from companies like Planet Labs, Umbra, and HawkEye 360; GPS; miniature CubeSats for education and research; and military/defense satellites.

Not visible in the next 10 days
Identifier
68380, 2026-063A
Orbit
SSO
Country
Flag of USUS
Related business
Manufacturer
SpaceX/Seattle
Mission
Operational spacecraft
Bus & Motor
STARLINK V2MO, Unknown motor
Mass
575 kg wet, ~530 kg dry
Launch date (UTC)
2026-03-26 (1 week ago)
Launch vehicle
FALCON 9
Launch site
Air Force Western Test Range (AFWTR)
Object type
Payload
Rocket body
Debris
Shape & HBR
Unknown shape, 17.7 m
Radar Cross Section
RCS unknown

Expand to show TLE details & history
Last TLE update: 5 hours ago

TLE from 5 hours ago
0 STARLINK-36296
1 68380U 26063A   26095.50003471  .00464473  92625-4  10202-2 0  9997
2 68380  97.2832 236.5173 0001458  10.4178  91.0485 15.98128030  2763
Epoch: 2026-04-05T12:00Z
TLE epoch observation values (Epoch: 2026-04-05T12:00:02.998Z)
Latitude
76.49019°
Longitude
74.63366°
Altitude
292.646 km
Speed
7.739 km/s
True Right ascension
05h 53m 48s
True Declination
76° 24' 23"
Sunlit
Object was in daylight at epoch
Visualization orbit readout
Latitude
Unknown
Longitude
Unknown
Altitude
Unknown
Speed
Unknown
Apparent Right ascension
Unknown
Apparent Declination
Unknown
Sunlit
N/A
Visualization observer readout
Local Sidereal Time
23:11:22
Azimuth
Unknown
Elevation
Unknown
Doppler factor
Unknown
Orbital elements
Apogee altitude
277.44 km
Perigee altitude
275.5 km
Semi-major axis
6,654.607 km
Eccentricity
0.00015
Inclination
97.2832°
RAAN
236.5173°
Arg. of periapsis
10.4178°
True anomaly
91.0652°
Mean anomaly
91.0485°
Eccentric anomaly
91.05685°
Mean motion
3.99815 °/min
Orbital period
90.04 mins
BSTAR
0.0010202
Loading maneuver chart data...
Computing Atmospheric mass density...
Loading historical data...
Loading historical data...
Loading historical data...
Loading historical data...
Loading historical data...
Loading historical data...
Loading historical data...

Documentation

Showing up to 5 results
|